Tracking 19149 objects as of 22-Apr-2018
HD Live streaming from Space Station
objects crossing your sky now

FENGYUN 1C DEB

Track FENGYUN 1C DEB now!
10-day predictions


NORAD ID: 30099
Int'l Code: 1999-025RC
Perigee: 776.3 km
Apogee: 870.7 km
Inclination: 98.7 °
Period: 101.2 minutes
Semi major axis: 7194 km
RCS: 0.039 m2 (small)
Launch date: May 10, 1999
Source: People's Republic of China (PRC)
Launch site: Taiyaun Space Center, China (TSC)

Note: This is SATELLITE DEBRIS
aabbcc
Your satellite tracking list
Your tracking list is empty




NASA's NSSDC Master Catalog

Two Line Element Set (TLE):
1 30099U 99025RC  18111.81618031  .00000105  00000-0  64934-4 0  9992
2 30099  98.7173 196.9133 0065638  72.6637  46.3430 14.22659039584827
Source of the keplerian elements: AFSPC